KLEX Airport Diagram

We have created a template for each of the higher traffic airports in the vZID airspace. They include KCMH, KCRW, KCVG, KDAY, KIND, KLEX and KSDF. You wil find usefull information including the airport diagram, weather, and specific airport procedures.

KLEX Weather

[Source: ADDS]
METAR
KLEX 180054Z 23007KT 3SM BR OVC003 06/04 A3002 RMK AO2 RAE19 SLP171 P0000 T00610044 =
KLEX 172323Z 1800/1824 22007KT 4SM -RADZ OVC004 FM180300 27006KT 6SM BR OVC004 FM181300 30005KT P6SM OVC008 FM181800 VRB04KT P6SM OVC014
TAF
KLEX 172323Z 1800/1824 22007KT 4SM -RADZ OVC004 FM180300 27006KT 6SM BR OVC004 FM181300 30005KT P6SM OVC008 FM181800 VRB04KT P6SM OVC014 =

KLEX Operations

Calm wind runway at KLEX is Runway 22, up to and including 10kts.

Default scenery shows Runway 8/26, which crosses Runway 22. When taxiing to Runway 22, clearance to cross Runway 26 not required.

Updated scenery available at www.flightsim.com.

 

JSN Epic template designed by JoomlaShine.com